Year,Month,Day,Hour,Minute,Value (Times are PST for temperature in C)
2017,05,20,00,00,13.40
2017,05,20,00,01,13.40
2017,05,20,00,02,13.30
2017,05,20,00,03,13.30
2017,05,20,00,04,13.30
2017,05,20,00,05,13.30
2017,05,20,00,06,13.30
2017,05,20,00,07,13.30
2017,05,20,00,08,13.30
2017,05,20,00,09,13.30
2017,05,20,00,10,13.30
2017,05,20,00,11,13.30
2017,05,20,00,12,13.30
2017,05,20,00,13,13.30
2017,05,20,00,14,13.30
2017,05,20,00,15,13.30
2017,05,20,00,16,13.30
2017,05,20,00,17,13.30
2017,05,20,00,18,13.30
2017,05,20,00,19,13.30
2017,05,20,00,20,13.30
2017,05,20,00,21,13.30
2017,05,20,00,22,13.30
2017,05,20,00,23,13.20
2017,05,20,00,24,13.20
2017,05,20,00,25,13.20
2017,05,20,00,26,13.20
2017,05,20,00,27,13.20
2017,05,20,00,28,13.20
2017,05,20,00,29,13.20
2017,05,20,00,30,13.20
2017,05,20,00,31,13.20
2017,05,20,00,32,13.20
2017,05,20,00,33,13.20
2017,05,20,00,34,13.20
2017,05,20,00,35,13.20
2017,05,20,00,36,13.20
2017,05,20,00,37,13.20
2017,05,20,00,38,13.20
2017,05,20,00,39,13.20
2017,05,20,00,40,13.20
2017,05,20,00,41,13.20
2017,05,20,00,42,13.20
2017,05,20,00,43,13.20
2017,05,20,00,44,13.10
2017,05,20,00,45,13.10
2017,05,20,00,46,13.10
2017,05,20,00,47,13.10
2017,05,20,00,48,13.10
2017,05,20,00,49,13.10
2017,05,20,00,50,13.10
2017,05,20,00,51,13.10
2017,05,20,00,52,13.10
2017,05,20,00,53,13.10
2017,05,20,00,54,13.10
2017,05,20,00,55,13.10
2017,05,20,00,56,13.10
2017,05,20,00,57,13.10
2017,05,20,00,58,13.10
2017,05,20,00,59,13.10
2017,05,20,01,00,13.10
2017,05,20,01,01,13.00
2017,05,20,01,02,13.00
2017,05,20,01,03,13.00
2017,05,20,01,04,13.00
2017,05,20,01,05,13.00
2017,05,20,01,06,12.90
2017,05,20,01,07,12.90
2017,05,20,01,08,12.90
2017,05,20,01,09,12.90
2017,05,20,01,10,12.90
2017,05,20,01,11,12.90
2017,05,20,01,12,12.90
2017,05,20,01,13,12.80
2017,05,20,01,14,12.80
2017,05,20,01,15,12.80
2017,05,20,01,16,12.80
2017,05,20,01,17,12.80
2017,05,20,01,18,12.80
2017,05,20,01,19,12.70
2017,05,20,01,20,12.70
2017,05,20,01,21,12.70
2017,05,20,01,22,12.70
2017,05,20,01,23,12.70
2017,05,20,01,24,12.70
2017,05,20,01,25,12.70
2017,05,20,01,26,12.70
2017,05,20,01,27,12.70
2017,05,20,01,28,12.60
2017,05,20,01,29,12.60
2017,05,20,01,30,12.60
2017,05,20,01,31,12.60
2017,05,20,01,32,12.60
2017,05,20,01,33,12.60
2017,05,20,01,34,12.60
2017,05,20,01,35,12.60
2017,05,20,01,36,12.60
2017,05,20,01,37,12.50
2017,05,20,01,38,12.50
2017,05,20,01,39,12.50
2017,05,20,01,40,12.50
2017,05,20,01,41,12.50
2017,05,20,01,42,12.50
2017,05,20,01,43,12.50
2017,05,20,01,44,12.40
2017,05,20,01,45,12.40
2017,05,20,01,46,12.40
2017,05,20,01,47,12.40
2017,05,20,01,48,12.40
2017,05,20,01,49,12.40
2017,05,20,01,50,12.40
2017,05,20,01,51,12.40
2017,05,20,01,52,12.30
2017,05,20,01,53,12.30
2017,05,20,01,54,12.30
2017,05,20,01,55,12.30
2017,05,20,01,56,12.30
2017,05,20,01,57,12.30
2017,05,20,01,58,12.30
2017,05,20,01,59,12.30
2017,05,20,02,00,12.30
2017,05,20,02,01,12.30
2017,05,20,02,02,12.20
2017,05,20,02,03,12.20
2017,05,20,02,04,12.20
2017,05,20,02,05,12.20
2017,05,20,02,06,12.20
2017,05,20,02,07,12.20
2017,05,20,02,08,12.20
2017,05,20,02,09,12.20
2017,05,20,02,10,12.20
2017,05,20,02,11,12.20
2017,05,20,02,12,12.20
2017,05,20,02,13,12.20
2017,05,20,02,14,12.20
2017,05,20,02,15,12.20
2017,05,20,02,16,12.20
2017,05,20,02,17,12.20
2017,05,20,02,18,12.20
2017,05,20,02,19,12.10
2017,05,20,02,20,12.10
2017,05,20,02,21,12.10
2017,05,20,02,22,12.10
2017,05,20,02,23,12.10
2017,05,20,02,24,12.10
2017,05,20,02,25,12.10
2017,05,20,02,26,12.10
2017,05,20,02,27,12.10
2017,05,20,02,28,12.10
2017,05,20,02,29,12.10
2017,05,20,02,30,12.10
2017,05,20,02,31,12.10
2017,05,20,02,32,12.10
2017,05,20,02,33,12.00
2017,05,20,02,34,12.00
2017,05,20,02,35,12.00
2017,05,20,02,36,12.00
2017,05,20,02,37,12.00
2017,05,20,02,38,12.00
2017,05,20,02,39,12.00
2017,05,20,02,40,12.00
2017,05,20,02,41,11.90
2017,05,20,02,42,11.90
2017,05,20,02,43,11.90
2017,05,20,02,44,11.90
2017,05,20,02,45,11.90
2017,05,20,02,46,11.80
2017,05,20,02,47,11.80
2017,05,20,02,48,11.80
2017,05,20,02,49,11.80
2017,05,20,02,50,11.80
2017,05,20,02,51,11.70
2017,05,20,02,52,11.70
2017,05,20,02,53,11.70
2017,05,20,02,54,11.70
2017,05,20,02,55,11.60
2017,05,20,02,56,11.60
2017,05,20,02,57,11.60
2017,05,20,02,58,11.60
2017,05,20,02,59,11.60
2017,05,20,03,00,11.50
2017,05,20,03,01,11.50
2017,05,20,03,02,11.50
2017,05,20,03,03,11.40
2017,05,20,03,04,11.40
2017,05,20,03,05,11.40
2017,05,20,03,06,11.40
2017,05,20,03,07,11.40
2017,05,20,03,08,11.30
2017,05,20,03,09,11.30
2017,05,20,03,10,11.30
2017,05,20,03,11,11.30
2017,05,20,03,12,11.30
2017,05,20,03,13,11.30
2017,05,20,03,14,11.30
2017,05,20,03,15,11.20
2017,05,20,03,16,11.20
2017,05,20,03,17,11.20
2017,05,20,03,18,11.20
2017,05,20,03,19,11.20
2017,05,20,03,20,11.20
2017,05,20,03,21,11.20
2017,05,20,03,22,11.20
2017,05,20,03,23,11.20
2017,05,20,03,24,11.20
2017,05,20,03,25,11.10
2017,05,20,03,26,11.10
2017,05,20,03,27,11.10
2017,05,20,03,28,11.10
2017,05,20,03,29,11.10
2017,05,20,03,30,11.10
2017,05,20,03,31,11.10
2017,05,20,03,32,11.10
2017,05,20,03,33,11.10
2017,05,20,03,34,11.10
2017,05,20,03,35,11.10
2017,05,20,03,36,11.10
2017,05,20,03,37,11.10
2017,05,20,03,38,11.10
2017,05,20,03,39,11.10
2017,05,20,03,40,11.10
2017,05,20,03,41,11.10
2017,05,20,03,42,11.10
2017,05,20,03,43,11.10
2017,05,20,03,44,11.10
2017,05,20,03,45,11.10
2017,05,20,03,46,11.10
2017,05,20,03,47,11.10
2017,05,20,03,48,11.10
2017,05,20,03,49,11.10
2017,05,20,03,50,11.10
2017,05,20,03,51,11.10
2017,05,20,03,52,11.10
2017,05,20,03,53,11.10
2017,05,20,03,54,11.10
2017,05,20,03,55,11.10
2017,05,20,03,56,11.10
2017,05,20,03,57,11.10
2017,05,20,03,58,11.10
2017,05,20,03,59,11.10
2017,05,20,04,00,11.10
2017,05,20,04,01,11.10
2017,05,20,04,02,11.10
2017,05,20,04,03,11.10
2017,05,20,04,04,11.10
2017,05,20,04,05,11.10
2017,05,20,04,06,11.10
2017,05,20,04,07,11.10
2017,05,20,04,08,11.10
2017,05,20,04,09,11.10
2017,05,20,04,10,11.10
2017,05,20,04,11,11.10
2017,05,20,04,12,11.10
2017,05,20,04,13,11.10
2017,05,20,04,14,11.10
2017,05,20,04,15,11.10
2017,05,20,04,16,11.10
2017,05,20,04,17,11.10
2017,05,20,04,18,11.10
2017,05,20,04,19,11.10
2017,05,20,04,20,11.00
2017,05,20,04,21,11.10
2017,05,20,04,22,11.00
2017,05,20,04,23,11.00
2017,05,20,04,24,11.00
2017,05,20,04,25,11.00
2017,05,20,04,26,11.00
2017,05,20,04,27,11.00
2017,05,20,04,28,11.00
2017,05,20,04,29,11.00
2017,05,20,04,30,11.00
2017,05,20,04,31,11.00
2017,05,20,04,32,11.00
2017,05,20,04,33,11.00
2017,05,20,04,34,11.00
2017,05,20,04,35,11.00
2017,05,20,04,36,11.00
2017,05,20,04,37,11.00
2017,05,20,04,38,11.00
2017,05,20,04,39,11.00
2017,05,20,04,40,11.00
2017,05,20,04,41,11.00
2017,05,20,04,42,10.90
2017,05,20,04,43,10.90
2017,05,20,04,44,10.90
2017,05,20,04,45,10.90
2017,05,20,04,46,10.90
2017,05,20,04,47,10.90
2017,05,20,04,48,10.90
2017,05,20,04,49,10.90
2017,05,20,04,50,10.90
2017,05,20,04,51,10.90
2017,05,20,04,52,10.90
2017,05,20,04,53,10.90
2017,05,20,04,54,10.90
2017,05,20,04,55,10.90
2017,05,20,04,56,10.90
2017,05,20,04,57,10.90
2017,05,20,04,58,10.90
2017,05,20,04,59,10.80
2017,05,20,05,00,10.80
2017,05,20,05,01,10.80
2017,05,20,05,02,10.80
2017,05,20,05,03,10.80
2017,05,20,05,04,10.80
2017,05,20,05,05,10.80
2017,05,20,05,06,10.80
2017,05,20,05,07,10.80
2017,05,20,05,08,10.70
2017,05,20,05,09,10.70
2017,05,20,05,10,10.70
2017,05,20,05,11,10.70
2017,05,20,05,12,10.70
2017,05,20,05,13,10.70
2017,05,20,05,14,10.70
2017,05,20,05,15,10.60
2017,05,20,05,16,10.60
2017,05,20,05,17,10.60
2017,05,20,05,18,10.60
2017,05,20,05,19,10.60
2017,05,20,05,20,10.60
2017,05,20,05,21,10.50
2017,05,20,05,22,10.50
2017,05,20,05,23,10.50
2017,05,20,05,24,10.50
2017,05,20,05,25,10.40
2017,05,20,05,26,10.40
2017,05,20,05,27,10.40
2017,05,20,05,28,10.40
2017,05,20,05,29,10.40
2017,05,20,05,30,10.30
2017,05,20,05,31,10.30
2017,05,20,05,32,10.30
2017,05,20,05,33,10.30
2017,05,20,05,34,10.30
2017,05,20,05,35,10.30
2017,05,20,05,36,10.30
2017,05,20,05,37,10.30
2017,05,20,05,38,10.20
2017,05,20,05,39,10.20
2017,05,20,05,40,10.20
2017,05,20,05,41,10.20
2017,05,20,05,42,10.20
2017,05,20,05,43,10.10
2017,05,20,05,44,10.10
2017,05,20,05,45,10.10
2017,05,20,05,46,10.10
2017,05,20,05,47,10.10
2017,05,20,05,48,10.10
2017,05,20,05,49,10.10
2017,05,20,05,50,10.10
2017,05,20,05,51,10.10
2017,05,20,05,52,10.10
2017,05,20,05,53,10.10
2017,05,20,05,54,10.00
2017,05,20,05,55,10.00
2017,05,20,05,56,10.00
2017,05,20,05,57,10.00
2017,05,20,05,58,10.00
2017,05,20,05,59,10.00
2017,05,20,06,00,10.00
2017,05,20,06,01,10.00
2017,05,20,06,02,10.00
2017,05,20,06,03,10.00
2017,05,20,06,04,10.00
2017,05,20,06,05,10.00
2017,05,20,06,06,10.00
2017,05,20,06,07,10.00
2017,05,20,06,08,10.00
2017,05,20,06,09,10.00
2017,05,20,06,10,10.00
2017,05,20,06,11,10.00
2017,05,20,06,12,10.00
2017,05,20,06,13,10.00
2017,05,20,06,14,10.00
2017,05,20,06,15,10.00
2017,05,20,06,16,10.00
2017,05,20,06,17,10.00
2017,05,20,06,18,10.00
2017,05,20,06,19,9.90
2017,05,20,06,20,9.90
2017,05,20,06,21,9.90
2017,05,20,06,22,9.90
2017,05,20,06,23,9.90
2017,05,20,06,24,9.90
2017,05,20,06,25,9.90
2017,05,20,06,26,9.90
2017,05,20,06,27,9.90
2017,05,20,06,28,10.00
2017,05,20,06,29,10.00
2017,05,20,06,30,10.00
2017,05,20,06,31,10.00
2017,05,20,06,32,10.00
2017,05,20,06,33,10.00
2017,05,20,06,34,10.00
2017,05,20,06,35,10.00
2017,05,20,06,36,10.10
2017,05,20,06,37,10.10
2017,05,20,06,38,10.10
2017,05,20,06,39,10.10
2017,05,20,06,40,10.10
2017,05,20,06,41,10.20
2017,05,20,06,42,10.20
2017,05,20,06,43,10.20
2017,05,20,06,44,10.30
2017,05,20,06,45,10.30
2017,05,20,06,46,10.30
2017,05,20,06,47,10.40
2017,05,20,06,48,10.40
2017,05,20,06,49,10.50
2017,05,20,06,50,10.50
2017,05,20,06,51,10.60
2017,05,20,06,52,10.60
2017,05,20,06,53,10.70
2017,05,20,06,54,10.70
2017,05,20,06,55,10.80
2017,05,20,06,56,10.80
2017,05,20,06,57,10.90
2017,05,20,06,58,10.90
2017,05,20,06,59,11.00
2017,05,20,07,00,11.10
2017,05,20,07,01,11.10
2017,05,20,07,02,11.20
2017,05,20,07,03,11.30
2017,05,20,07,04,11.40
2017,05,20,07,05,11.40
2017,05,20,07,06,11.50
2017,05,20,07,07,11.60
2017,05,20,07,08,11.60
2017,05,20,07,09,11.70
2017,05,20,07,10,11.80
2017,05,20,07,11,11.90
2017,05,20,07,12,12.00
2017,05,20,07,13,12.10
2017,05,20,07,14,12.20
2017,05,20,07,15,12.20
2017,05,20,07,16,12.30
2017,05,20,07,17,12.40
2017,05,20,07,18,12.40
2017,05,20,07,19,12.50
2017,05,20,07,20,12.60
2017,05,20,07,21,12.70
2017,05,20,07,22,12.80
2017,05,20,07,23,12.80
2017,05,20,07,24,12.90
2017,05,20,07,25,12.90
2017,05,20,07,26,12.90
2017,05,20,07,27,13.00
2017,05,20,07,28,13.10
2017,05,20,07,29,13.10
2017,05,20,07,30,13.20
2017,05,20,07,31,13.30
2017,05,20,07,32,13.30
2017,05,20,07,33,13.30
2017,05,20,07,34,13.40
2017,05,20,07,35,13.40
2017,05,20,07,36,13.50
2017,05,20,07,37,13.60
2017,05,20,07,38,13.60
2017,05,20,07,39,13.70
2017,05,20,07,40,13.80
2017,05,20,07,41,13.80
2017,05,20,07,42,13.90
2017,05,20,07,43,14.00
2017,05,20,07,44,14.00
2017,05,20,07,45,14.10
2017,05,20,07,46,14.10
2017,05,20,07,47,14.20
2017,05,20,07,48,14.20
2017,05,20,07,49,14.30
2017,05,20,07,50,14.30
2017,05,20,07,51,14.30
2017,05,20,07,52,14.40
2017,05,20,07,53,14.40
2017,05,20,07,54,14.50
2017,05,20,07,55,14.50
2017,05,20,07,56,14.60
2017,05,20,07,57,14.60
2017,05,20,07,58,14.70
2017,05,20,07,59,14.70
2017,05,20,08,00,14.70
2017,05,20,08,01,14.70
2017,05,20,08,02,14.80
2017,05,20,08,03,14.80
2017,05,20,08,04,14.80
2017,05,20,08,05,14.80
2017,05,20,08,06,14.90
2017,05,20,08,07,14.90
2017,05,20,08,08,15.00
2017,05,20,08,09,15.00
2017,05,20,08,10,15.10
2017,05,20,08,11,15.10
2017,05,20,08,12,15.10
2017,05,20,08,13,15.20
2017,05,20,08,14,15.20
2017,05,20,08,15,15.20
2017,05,20,08,16,15.20
2017,05,20,08,17,15.20
2017,05,20,08,18,15.30
2017,05,20,08,19,15.30
2017,05,20,08,20,15.30
2017,05,20,08,21,15.40
2017,05,20,08,22,15.40
2017,05,20,08,23,15.40
2017,05,20,08,24,15.40
2017,05,20,08,25,15.50
2017,05,20,08,26,15.50
2017,05,20,08,27,15.60
2017,05,20,08,28,15.60
2017,05,20,08,29,15.60
2017,05,20,08,30,15.70
2017,05,20,08,31,15.70
2017,05,20,08,32,15.70
2017,05,20,08,33,15.70
2017,05,20,08,34,15.80
2017,05,20,08,35,15.80
2017,05,20,08,36,15.80
2017,05,20,08,37,15.90
2017,05,20,08,38,15.90
2017,05,20,08,39,15.90
2017,05,20,08,40,16.00
2017,05,20,08,41,16.00
2017,05,20,08,42,16.10
2017,05,20,08,43,16.10
2017,05,20,08,44,16.20
2017,05,20,08,45,16.20
2017,05,20,08,46,16.30
2017,05,20,08,47,16.30
2017,05,20,08,48,16.30
2017,05,20,08,49,16.30
2017,05,20,08,50,16.20
2017,05,20,08,51,16.30
2017,05,20,08,52,16.30
2017,05,20,08,53,16.30
2017,05,20,08,54,16.30
2017,05,20,08,55,16.30
2017,05,20,08,56,16.40
2017,05,20,08,57,16.40
2017,05,20,08,58,16.50
2017,05,20,08,59,16.50
2017,05,20,09,00,16.60
2017,05,20,09,01,16.70
2017,05,20,09,02,16.70
2017,05,20,09,03,16.80
2017,05,20,09,04,16.80
2017,05,20,09,05,16.80
2017,05,20,09,06,16.80
2017,05,20,09,07,16.80
2017,05,20,09,08,16.80
2017,05,20,09,09,16.90
2017,05,20,09,10,16.90
2017,05,20,09,11,16.90
2017,05,20,09,12,16.90
2017,05,20,09,13,16.90
2017,05,20,09,14,17.00
2017,05,20,09,15,17.00
2017,05,20,09,16,17.10
2017,05,20,09,17,17.10
2017,05,20,09,18,17.10
2017,05,20,09,19,17.10
2017,05,20,09,20,17.20
2017,05,20,09,21,17.20
2017,05,20,09,22,17.20
2017,05,20,09,23,17.20
2017,05,20,09,24,17.20
2017,05,20,09,25,17.30
2017,05,20,09,26,17.30
2017,05,20,09,27,17.30
2017,05,20,09,28,17.40
2017,05,20,09,29,17.40
2017,05,20,09,30,17.40
2017,05,20,09,31,17.40
2017,05,20,09,32,17.40
2017,05,20,09,33,17.40
2017,05,20,09,34,17.40
2017,05,20,09,35,17.40
2017,05,20,09,36,17.40
2017,05,20,09,37,17.40
2017,05,20,09,38,17.50
2017,05,20,09,39,17.50
2017,05,20,09,40,17.60
2017,05,20,09,41,17.60
2017,05,20,09,42,17.60
2017,05,20,09,43,17.60
2017,05,20,09,44,17.60
2017,05,20,09,45,17.60
2017,05,20,09,46,17.60
2017,05,20,09,47,17.50
2017,05,20,09,48,17.50
2017,05,20,09,49,17.40
2017,05,20,09,50,17.40
2017,05,20,09,51,17.40
2017,05,20,09,52,17.40
2017,05,20,09,53,17.40
2017,05,20,09,54,17.40
2017,05,20,09,55,17.40
2017,05,20,09,56,17.40
2017,05,20,09,57,17.40
2017,05,20,09,58,17.30
2017,05,20,09,59,17.30
2017,05,20,10,00,17.30
2017,05,20,10,01,17.30
2017,05,20,10,02,17.40
2017,05,20,10,03,17.40
2017,05,20,10,04,17.50
2017,05,20,10,05,17.50
2017,05,20,10,06,17.60
2017,05,20,10,07,17.60
2017,05,20,10,08,17.60
2017,05,20,10,09,17.70
2017,05,20,10,10,17.70
2017,05,20,10,11,17.80
2017,05,20,10,12,17.80
2017,05,20,10,13,17.80
2017,05,20,10,14,17.80
2017,05,20,10,15,17.90
2017,05,20,10,16,17.90
2017,05,20,10,17,18.00
2017,05,20,10,18,18.00
2017,05,20,10,19,18.10
2017,05,20,10,20,18.10
2017,05,20,10,21,18.20
2017,05,20,10,22,18.30
2017,05,20,10,23,18.30
2017,05,20,10,24,18.40
2017,05,20,10,25,18.50
2017,05,20,10,26,18.60
2017,05,20,10,27,18.70
2017,05,20,10,28,18.70
2017,05,20,10,29,18.60
2017,05,20,10,30,18.60
2017,05,20,10,31,18.50
2017,05,20,10,32,18.40
2017,05,20,10,33,18.40
2017,05,20,10,34,18.50
2017,05,20,10,35,18.50
2017,05,20,10,36,18.60
2017,05,20,10,37,18.60
2017,05,20,10,38,18.70
2017,05,20,10,39,18.70
2017,05,20,10,40,18.80
2017,05,20,10,41,18.80
2017,05,20,10,42,18.80
2017,05,20,10,43,18.90
2017,05,20,10,44,18.90
2017,05,20,10,45,19.00
2017,05,20,10,46,19.00
2017,05,20,10,47,19.00
2017,05,20,10,48,19.00
2017,05,20,10,49,18.90
2017,05,20,10,50,19.00
2017,05,20,10,51,19.00
2017,05,20,10,52,19.00
2017,05,20,10,53,19.10
2017,05,20,10,54,19.10
2017,05,20,10,55,19.00
2017,05,20,10,56,19.00
2017,05,20,10,57,18.90
2017,05,20,10,58,18.90
2017,05,20,10,59,18.80
2017,05,20,11,00,18.80
2017,05,20,11,01,18.80
2017,05,20,11,02,18.80
2017,05,20,11,03,18.80
2017,05,20,11,04,18.90
2017,05,20,11,05,18.90
2017,05,20,11,06,19.00
2017,05,20,11,07,19.10
2017,05,20,11,08,19.20
2017,05,20,11,09,19.20
2017,05,20,11,10,19.20
2017,05,20,11,11,19.20
2017,05,20,11,12,19.10
2017,05,20,11,13,19.20
2017,05,20,11,14,19.20
2017,05,20,11,15,19.20
2017,05,20,11,16,19.20
2017,05,20,11,17,19.20
2017,05,20,11,18,19.20
2017,05,20,11,19,19.20
2017,05,20,11,20,19.30
2017,05,20,11,21,19.30
2017,05,20,11,22,19.40
2017,05,20,11,23,19.50
2017,05,20,11,24,19.60
2017,05,20,11,25,19.70
2017,05,20,11,26,19.80
2017,05,20,11,27,19.90
2017,05,20,11,28,19.90
2017,05,20,11,29,19.90
2017,05,20,11,30,19.90
2017,05,20,11,31,19.90
2017,05,20,11,32,19.90
2017,05,20,11,33,19.90
2017,05,20,11,34,19.90
2017,05,20,11,35,19.90
2017,05,20,11,36,20.00
2017,05,20,11,37,20.10
2017,05,20,11,38,20.10
2017,05,20,11,39,20.20
2017,05,20,11,40,20.20
2017,05,20,11,41,20.20
2017,05,20,11,42,20.30
2017,05,20,11,43,20.30
2017,05,20,11,44,20.30
2017,05,20,11,45,20.30
2017,05,20,11,46,20.30
2017,05,20,11,47,20.30
2017,05,20,11,48,20.30
2017,05,20,11,49,20.30
2017,05,20,11,50,20.30
2017,05,20,11,51,20.30
2017,05,20,11,52,20.40
2017,05,20,11,53,20.40
2017,05,20,11,54,20.40
2017,05,20,11,55,20.30
2017,05,20,11,56,20.30
2017,05,20,11,57,20.40
2017,05,20,11,58,20.40
2017,05,20,11,59,20.40
2017,05,20,12,00,20.50
2017,05,20,12,01,20.40
2017,05,20,12,02,20.40
2017,05,20,12,03,20.40
2017,05,20,12,04,20.40
2017,05,20,12,05,20.30
2017,05,20,12,06,20.30
2017,05,20,12,07,20.30
2017,05,20,12,08,20.30
2017,05,20,12,09,20.30
2017,05,20,12,10,20.30
2017,05,20,12,11,20.30
2017,05,20,12,12,20.40
2017,05,20,12,13,20.40
2017,05,20,12,14,20.40
2017,05,20,12,15,20.40
2017,05,20,12,16,20.40
2017,05,20,12,17,20.40
2017,05,20,12,18,20.40
2017,05,20,12,19,20.30
2017,05,20,12,20,20.30
2017,05,20,12,21,20.30
2017,05,20,12,22,20.40
2017,05,20,12,23,20.40
2017,05,20,12,24,20.50
2017,05,20,12,25,20.60
2017,05,20,12,26,20.60
2017,05,20,12,27,20.70
2017,05,20,12,28,20.80
2017,05,20,12,29,20.90
2017,05,20,12,30,20.90
2017,05,20,12,31,20.90
2017,05,20,12,32,21.00
2017,05,20,12,33,21.00
2017,05,20,12,34,20.90
2017,05,20,12,35,20.90
2017,05,20,12,36,20.90
2017,05,20,12,37,21.00
2017,05,20,12,38,21.10
2017,05,20,12,39,21.10
2017,05,20,12,40,21.10
2017,05,20,12,41,21.10
2017,05,20,12,42,21.10
2017,05,20,12,43,21.10
2017,05,20,12,44,21.10
2017,05,20,12,45,21.10
2017,05,20,12,46,21.10
2017,05,20,12,47,21.10
2017,05,20,12,48,21.10
2017,05,20,12,49,21.20
2017,05,20,12,50,21.20
2017,05,20,12,51,21.20
2017,05,20,12,52,21.20
2017,05,20,12,53,21.20
2017,05,20,12,54,21.20
2017,05,20,12,55,21.20
2017,05,20,12,56,21.20
2017,05,20,12,57,21.10
2017,05,20,12,58,21.10
2017,05,20,12,59,21.00
2017,05,20,13,00,21.00
2017,05,20,13,01,21.00
2017,05,20,13,02,20.90
2017,05,20,13,03,21.00
2017,05,20,13,04,21.00
2017,05,20,13,05,21.00
2017,05,20,13,06,20.90
2017,05,20,13,07,20.90
2017,05,20,13,08,20.80
2017,05,20,13,09,20.80
2017,05,20,13,10,20.80
2017,05,20,13,11,20.80
2017,05,20,13,12,20.80
2017,05,20,13,13,20.70
2017,05,20,13,14,20.70
2017,05,20,13,15,20.70
2017,05,20,13,16,20.70
2017,05,20,13,17,20.70
2017,05,20,13,18,20.70
2017,05,20,13,19,20.70
2017,05,20,13,20,20.70
2017,05,20,13,21,20.70
2017,05,20,13,22,20.70
2017,05,20,13,23,20.60
2017,05,20,13,24,20.60
2017,05,20,13,25,20.50
2017,05,20,13,26,20.50
2017,05,20,13,27,20.40
2017,05,20,13,28,20.30
2017,05,20,13,29,20.20
2017,05,20,13,30,20.20
2017,05,20,13,31,20.20
2017,05,20,13,32,20.20
2017,05,20,13,33,20.30
2017,05,20,13,34,20.30
2017,05,20,13,35,20.40
2017,05,20,13,36,20.50
2017,05,20,13,37,20.60
2017,05,20,13,38,20.70
2017,05,20,13,39,20.70
2017,05,20,13,40,20.70
2017,05,20,13,41,20.70
2017,05,20,13,42,20.70
2017,05,20,13,43,20.70
2017,05,20,13,44,20.70
2017,05,20,13,45,20.80
2017,05,20,13,46,20.80
2017,05,20,13,47,20.80
2017,05,20,13,48,20.80
2017,05,20,13,49,20.70
2017,05,20,13,50,20.70
2017,05,20,13,51,20.70
2017,05,20,13,52,20.80
2017,05,20,13,53,20.80
2017,05,20,13,54,20.90
2017,05,20,13,55,21.00
2017,05,20,13,56,21.00
2017,05,20,13,57,21.10
2017,05,20,13,58,21.10
2017,05,20,13,59,21.00
2017,05,20,14,00,21.00
2017,05,20,14,01,20.90
2017,05,20,14,02,20.90
2017,05,20,14,03,20.80
2017,05,20,14,04,20.80
2017,05,20,14,05,20.90
2017,05,20,14,06,20.80
2017,05,20,14,07,20.80
2017,05,20,14,08,20.80
2017,05,20,14,09,20.80
2017,05,20,14,10,20.70
2017,05,20,14,11,20.70
2017,05,20,14,12,20.70
2017,05,20,14,13,20.70
2017,05,20,14,14,20.70
2017,05,20,14,15,20.80
2017,05,20,14,16,20.80
2017,05,20,14,17,20.90
2017,05,20,14,18,20.90
2017,05,20,14,19,20.90
2017,05,20,14,20,20.90
2017,05,20,14,21,20.90
2017,05,20,14,22,21.00
2017,05,20,14,23,21.00
2017,05,20,14,24,21.10
2017,05,20,14,25,21.10
2017,05,20,14,26,21.00
2017,05,20,14,27,21.00
2017,05,20,14,28,21.00
2017,05,20,14,29,21.00
2017,05,20,14,30,21.10
2017,05,20,14,31,21.10
2017,05,20,14,32,21.10
2017,05,20,14,33,21.20
2017,05,20,14,34,21.20
2017,05,20,14,35,21.30
2017,05,20,14,36,21.40
2017,05,20,14,37,21.50
2017,05,20,14,38,21.60
2017,05,20,14,39,21.60
2017,05,20,14,40,21.60
2017,05,20,14,41,21.60
2017,05,20,14,42,21.70
2017,05,20,14,43,21.70
2017,05,20,14,44,21.80
2017,05,20,14,45,21.80
2017,05,20,14,46,21.80
2017,05,20,14,47,21.80
2017,05,20,14,48,21.80
2017,05,20,14,49,21.80
2017,05,20,14,50,21.80
2017,05,20,14,51,21.80
2017,05,20,14,52,21.90
2017,05,20,14,53,22.00
2017,05,20,14,54,22.10
2017,05,20,14,55,22.20
2017,05,20,14,56,22.20
2017,05,20,14,57,22.20
2017,05,20,14,58,22.20
2017,05,20,14,59,22.20
2017,05,20,15,00,22.20
2017,05,20,15,01,22.30
2017,05,20,15,02,22.30
2017,05,20,15,03,22.20
2017,05,20,15,04,22.20
2017,05,20,15,05,22.10
2017,05,20,15,06,22.00
2017,05,20,15,07,22.00
2017,05,20,15,08,21.90
2017,05,20,15,09,21.90
2017,05,20,15,10,21.90
2017,05,20,15,11,21.90
2017,05,20,15,12,21.90
2017,05,20,15,13,21.90
2017,05,20,15,14,21.90
2017,05,20,15,15,21.90
2017,05,20,15,16,21.90
2017,05,20,15,17,21.90
2017,05,20,15,18,22.00
2017,05,20,15,19,22.10
2017,05,20,15,20,22.10
2017,05,20,15,21,22.20
2017,05,20,15,22,22.20
2017,05,20,15,23,22.30
2017,05,20,15,24,22.30
2017,05,20,15,25,22.40
2017,05,20,15,26,22.40
2017,05,20,15,27,22.40
2017,05,20,15,28,22.40
2017,05,20,15,29,22.40
2017,05,20,15,30,22.40
2017,05,20,15,31,22.40
2017,05,20,15,32,22.50
2017,05,20,15,33,22.60
2017,05,20,15,34,22.60
2017,05,20,15,35,22.70
2017,05,20,15,36,22.70
2017,05,20,15,37,22.80
2017,05,20,15,38,22.80
2017,05,20,15,39,22.70
2017,05,20,15,40,22.70
2017,05,20,15,41,22.60
2017,05,20,15,42,22.60
2017,05,20,15,43,22.60
2017,05,20,15,44,22.60
2017,05,20,15,45,22.60
2017,05,20,15,46,22.60
2017,05,20,15,47,22.60
2017,05,20,15,48,22.60
2017,05,20,15,49,22.50
2017,05,20,15,50,22.50
2017,05,20,15,51,22.40
2017,05,20,15,52,22.40
2017,05,20,15,53,22.40
2017,05,20,15,54,22.30
2017,05,20,15,55,22.30
2017,05,20,15,56,22.30
2017,05,20,15,57,22.30
2017,05,20,15,58,22.30
2017,05,20,15,59,22.30
2017,05,20,16,00,22.30
2017,05,20,16,01,22.30
2017,05,20,16,02,22.30
2017,05,20,16,03,22.40
2017,05,20,16,04,22.40
2017,05,20,16,05,22.50
2017,05,20,16,06,22.50
2017,05,20,16,07,22.50
2017,05,20,16,08,22.60
2017,05,20,16,09,22.60
2017,05,20,16,10,22.60
2017,05,20,16,11,22.60
2017,05,20,16,12,22.60
2017,05,20,16,13,22.70
2017,05,20,16,14,22.70
2017,05,20,16,15,22.70
2017,05,20,16,16,22.70
2017,05,20,16,17,22.70
2017,05,20,16,18,22.80
2017,05,20,16,19,22.90
2017,05,20,16,20,22.90
2017,05,20,16,21,22.90
2017,05,20,16,22,22.80
2017,05,20,16,23,22.70
2017,05,20,16,24,22.70
2017,05,20,16,25,22.60
2017,05,20,16,26,22.60
2017,05,20,16,27,22.70
2017,05,20,16,28,22.70
2017,05,20,16,29,22.70
2017,05,20,16,30,22.70
2017,05,20,16,31,22.70
2017,05,20,16,32,22.70
2017,05,20,16,33,22.60
2017,05,20,16,34,22.60
2017,05,20,16,35,22.70
2017,05,20,16,36,22.70
2017,05,20,16,37,22.80
2017,05,20,16,38,22.80
2017,05,20,16,39,22.90
2017,05,20,16,40,22.90
2017,05,20,16,41,22.90
2017,05,20,16,42,22.90
2017,05,20,16,43,23.00
2017,05,20,16,44,23.10
2017,05,20,16,45,23.10
2017,05,20,16,46,23.20
2017,05,20,16,47,23.20
2017,05,20,16,48,23.20
2017,05,20,16,49,23.10
2017,05,20,16,50,23.10
2017,05,20,16,51,23.00
2017,05,20,16,52,22.90
2017,05,20,16,53,22.90
2017,05,20,16,54,22.80
2017,05,20,16,55,22.80
2017,05,20,16,56,22.80
2017,05,20,16,57,22.80
2017,05,20,16,58,22.80
2017,05,20,16,59,22.80
2017,05,20,17,00,22.70
2017,05,20,17,01,22.70
2017,05,20,17,02,22.80
2017,05,20,17,03,22.80
2017,05,20,17,04,22.80
2017,05,20,17,05,22.80
2017,05,20,17,06,22.80
2017,05,20,17,07,22.80
2017,05,20,17,08,22.90
2017,05,20,17,09,23.00
2017,05,20,17,10,23.00
2017,05,20,17,11,23.00
2017,05,20,17,12,23.00
2017,05,20,17,13,23.00
2017,05,20,17,14,23.10
2017,05,20,17,15,23.20
2017,05,20,17,16,23.20
2017,05,20,17,17,23.30
2017,05,20,17,18,23.30
2017,05,20,17,19,23.30